TimeMST,TemperatureF,Dew PointF,Humidity,Sea Level PressureIn,VisibilityMPH,Wind Direction,Wind SpeedMPH,Gust SpeedMPH,PrecipitationIn,Events,Conditions,WindDirDegrees,DateUTC
12:53 AM,36.0,26.1,67,30.07,10.0,WSW,19.6,-,N/A,,Overcast,250,2014-01-01 07:53:00
1:53 AM,35.1,27.0,72,30.12,10.0,NW,10.4,-,N/A,,Overcast,310,2014-01-01 08:53:00
2:53 AM,34.0,27.0,75,30.17,10.0,NW,8.1,-,0.00,,Overcast,320,2014-01-01 09:53:00
3:53 AM,33.1,27.0,78,30.19,10.0,WSW,9.2,-,0.00,,Overcast,250,2014-01-01 10:53:00
4:53 AM,34.0,26.1,73,30.21,10.0,West,12.7,-,N/A,,Overcast,260,2014-01-01 11:53:00
5:53 AM,34.0,23.0,64,30.22,10.0,WSW,17.3,-,N/A,,Overcast,250,2014-01-01 12:53:00
6:53 AM,33.1,21.9,64,30.28,10.0,West,3.5,-,N/A,,Overcast,260,2014-01-01 13:53:00
7:53 AM,33.1,21.9,64,30.29,10.0,WSW,11.5,-,N/A,,Overcast,240,2014-01-01 14:53:00
8:53 AM,34.0,21.0,59,30.33,10.0,WSW,8.1,-,N/A,,Overcast,240,2014-01-01 15:53:00
9:53 AM,33.1,21.9,64,30.34,10.0,WSW,16.1,-,N/A,,Overcast,250,2014-01-01 16:53:00
10:53 AM,34.0,21.0,59,30.35,10.0,WSW,16.1,-,N/A,,Overcast,250,2014-01-01 17:53:00
11:53 AM,37.0,21.0,52,30.31,10.0,WSW,20.7,-,N/A,,Overcast,250,2014-01-01 18:53:00
12:53 PM,37.9,21.0,51,30.30,10.0,West,23.0,31.1,N/A,,Clear,260,2014-01-01 19:53:00
1:53 PM,37.9,19.9,48,30.29,10.0,West,24.2,-,N/A,,Partly Cloudy,260,2014-01-01 20:53:00
2:53 PM,37.9,19.9,48,30.28,10.0,WSW,19.6,26.5,N/A,,Clear,250,2014-01-01 21:53:00
3:53 PM,36.0,19.0,50,30.29,10.0,WSW,18.4,-,N/A,,Clear,250,2014-01-01 22:53:00
4:53 PM,32.0,19.9,61,30.30,10.0,WSW,12.7,-,N/A,,Clear,250,2014-01-01 23:53:00
5:53 PM,33.1,19.0,56,30.30,10.0,WSW,19.6,-,N/A,,Clear,250,2014-01-02 00:53:00
6:53 PM,30.9,19.0,61,30.31,10.0,WSW,10.4,-,N/A,,Clear,240,2014-01-02 01:53:00
7:53 PM,33.1,17.1,52,30.29,10.0,West,15.0,-,N/A,,Clear,260,2014-01-02 02:53:00
8:53 PM,34.0,16.0,48,30.28,10.0,SW,25.3,38.0,N/A,,Clear,230,2014-01-02 03:53:00
9:53 PM,33.1,16.0,50,30.27,10.0,SW,29.9,40.3,N/A,,Clear,220,2014-01-02 04:53:00
10:53 PM,30.0,16.0,56,30.31,10.0,West,25.3,32.2,N/A,,Clear,260,2014-01-02 05:53:00
11:53 PM,32.0,15.1,50,30.27,10.0,WSW,33.4,44.9,N/A,,Clear,240,2014-01-02 06:53:00